Location: Falniów
(50.3639°N, 19.9642°E)
Time: 02:27:50
(UTC+00:00)

Cosmos 1269 Rocket - Pass Details

Date: 18 January 2026
Orbit: 768 x 775 km, 74.1° (Epoch: 6 February)

Event Time Altitude Azimuth Distance (km) Brightness Sun altitude
Rises 04:29:15 0° 207° (SSW) 3,240 7.1 -19.0°
Reaches altitude 10° 04:31:37 10° 209° (SSW) 2,318 6.3 -18.6°
Maximum altitude 04:36:53 76° 295° (WNW) 804 3.9 -17.8°
Drops below altitude 10° 04:42:12 10° 22° (NNE) 2,335 6.6 -17.0°
Sets 04:44:37 0° 24° (NNE) 3,266 7.4 -16.6°
